CAPE
118 135 169 164 157 138 106 71 79 65 76 76 75 82 111 140 98 48 5 16 42 18 0 2 4 21 5 1 3 1 0 0 0 0 2 0 0 0 0 0 0 0 0 0 1 16 4 0 0 0 0 0 0 0
117 124 149 160 191 174 134 95 83 80 77 81 66 94 96 113 150 130 13 4 37 42 0 0 0 1 1 6 24 0 0 0 0 1 0 0 1 0 0 0 0 0 0 0 0 0 0 0 0 0 0 0 0 0
111 125 133 162 165 185 188 165 158 112 106 125 124 89 49 90 148 124 5 0 0 0 0 1 0 0 0 0 0 5 0 0 0 0 0 0 0 0 0 0 0 0 0 0 0 0 0 0 0 0 0 0 0 0
116 130 134 145 169 193 196 194 177 169 165 156 142 119 124 106 128 142 24 0 0 1 0 0 0 0 0 0 0 0 0 0 0 0 0 0 0 0 0 0 0 0 0 0 0 0 0 0 0 0 0 0 0 0
80 99 119 136 144 173 187 187 192 182 170 177 162 151 152 146 87 78 5 0 0 0 1 0 0 0 0 1 0 0 1 0 0 0 0 0 0 0 0 0 0 0 0 0 0 0 0 0 0 0 0 0 0 0
26 33 48 85 120 140 142 152 153 143 147 201 157 161 153 93 110 22 0 0 0 0 3 0 0 0 0 2 3 1 0 0 0 0 0 0 0 0 0 0 0 0 0 0 0 0 0 0 0 0 0 0 0 0
76 74 61 45 56 74 107 97 84 97 110 124 147 150 131 121 37 1 0 0 4 1 2 2 0 0 0 0 0 0 0 0 0 0 0 0 0 0 0 0 0 0 0 0 0 0 0 0 0 0 0 0 0 0
78 82 80 67 51 38 39 36 28 48 122 79 154 133 149 169 121 27 0 0 0 1 0 3 0 0 0 0 0 0 0 0 0 0 0 0 0 0 0 0 0 0 0 0 0 0 0 0 0 0 0 0 0 0
40 37 2 3 6 18 25 26 23 17 35 43 147 169 38 1 0 0 1 0 0 2 1 0 0 0 0 0 0 0 0 0 0 0 0 0 0 0 0 0 0 0 0 0 0 0 0 0 0 0 0 0 0 0
4 0 0 2 9 10 13 18 24 24 25 131 78 1 0 0 6 4 0 0 0 0 0 0 0 0 0 0 0 0 0 0 0 0 0 0 0 0 0 0 0 0 0 0 0 0 0 0 0 0 0 0 0 0
2 0 20 23 10 24 16 113 76 45 0 0 0 0 6 5 0 0 0 0 0 0 0 0 0 0 0 0 0 0 0 0 0 0 0 0 0 0 0 0 0 0 0 0 0 0 0 0 0 0 0 0 0 0
0 1 15 13 15 10 0 1 0 0 0 0 0 0 0 0 0 0 0 0 0 0 0 0 0 0 0 0 0 2 0 0 0 0 0 0 0 0 0 0 0 0 0 0 0 0 0 0 0 0 0 0 0 0
0 0 0 11 15 0 13 3 0 0 0 0 0 0 0 0 0 0 0 0 0 0 0 0 0 0 0 0 0 0 0 0 0 0 0 0 0 0 0 0 0 0 0 0 0 0 0 0 0 0 0 0 0 0
0 0 0 0 0 0 0 0 0 0 0 0 0 0 0 0 0 0 0 0 0 0 0 0 0 0 0 0 0 0 0 0 0 0 0 0 0 0 0 0 0 0 0 0 0 0 0 0 0 0 0 0 0 0
0 0 0 0 0 0 0 0 0 0 0 0 0 0 0 0 0 0 0 0 0 0 0 0 0 0 0 0 0 0 0 0 0 0 0 0 0 0 0 0 0 0 0 0 0 0 0 0 0 0 0 0 0 0
0 0 0 0 0 0 0 0 0 0 0 0 0 0 0 0 0 0 0 0 0 0 0 0 0 0 0 0 0 0 0 0 0 0 0 0 0 0 0 0 0 0 0 0 0 0 0 0 0 0 0 0 0 0
0 0 0 0 0 0 0 0 0 0 0 0 0 0 0 0 0 0 0 0 0 0 0 0 0 0 0 0 0 0 0 0 0 0 0 0 0 0 0 0 0 0 0 0 0 0 0 0 0 0 0 0 0 0
0 0 0 0 0 0 0 0 0 0 0 0 0 0 0 0 0 0 0 0 0 0 0 0 0 0 0 0 0 0 0 0 0 0 0 0 0 0 0 0 0 0 0 0 0 0 0 0 0 0 0 0 0 0
0 0 0 0 0 0 0 0 0 0 0 0 0 0 0 0 0 0 0 0 0 0 0 0 0 0 0 0 0 0 0 0 0 0 0 0 0 0 0 0 0 0 0 0 0 0 0 0 0 0 0 0 0 0
0 0 0 0 0 0 0 0 0 0 0 0 0 0 0 0 0 0 0 0 0 0 0 0 0 0 0 0 0 0 0 0 0 0 0 0 0 0 0 0 0 0 0 0 0 1 0 0 0 0 0 0 0 0
0 0 0 0 0 0 0 0 0 0 0 0 0 0 0 0 0 0 0 0 0 0 0 0 0 0 0 0 0 0 0 0 0 0 0 0 0 0 0 0 0 0 0 0 0 0 0 0 0 0 0 0 0 0
0 0 0 0 0 0 0 0 0 0 0 0 0 0 0 0 0 0 0 0 0 0 0 0 0 0 0 0 0 0 0 0 0 0 0 0 0 0 0 0 0 0 0 0 0 0 0 0 0 0 0 0 0 0
0 0 0 0 0 0 0 0 0 0 0 0 0 0 0 0 0 0 0 0 0 0 0 0 0 0 0 0 0 0 0 0 0 0 0 0 0 0 0 0 0 0 0 0 0 0 0 1 0 0 0 0 0 0
0 0 0 0 0 0 0 0 0 0 0 0 0 0 0 0 0 0 0 0 0 0 0 0 0 0 0 0 0 0 0 0 0 0 0 0 0 0 0 0 0 0 0 0 0 0 0 0 1 0 0 0 0 0
0 0 0 0 0 0 0 0 0 0 0 0 0 0 0 0 0 0 0 0 0 0 0 0 0 0 0 0 0 0 0 0 0 0 0 0 0 0 0 0 0 0 0 0 0 0 0 0 0 0 0 0 0 0
0 0 0 0 0 0 0 0 0 0 0 0 0 0 0 0 0 0 0 0 0 0 0 0 0 0 0 0 0 0 0 0 0 0 0 0 0 0 0 0 0 0 0 0 0 0 0 0 0 0 0 0 5 0
0 0 0 0 0 0 0 0 0 0 0 0 0 0 0 0 0 0 0 0 0 0 0 0 0 0 0 0 0 0 0 0 0 0 0 0 0 0 0 0 0 0 0 0 0 0 0 0 0 0 0 0 0 0
0 0 0 0 0 0 0 0 0 0 0 0 0 0 0 0 0 0 0 0 0 0 0 0 0 0 0 0 0 0 0 0 0 0 0 0 0 0 0 0 0 6 0 0 0 0 0 0 0 0 0 0 0 0
0 0 0 0 0 0 0 0 0 0 0 0 0 0 0 0 0 0 0 0 0 0 0 0 0 0 0 0 0 0 0 0 0 0 0 0 0 0 0 0 0 0 0 0 3 0 0 0 0 0 0 0 0 0
0 0 0 0 0 0 0 0 0 0 0 0 0 0 0 0 0 0 0 0 0 0 0 0 0 0 0 0 0 0 0 0 0 0 0 0 0 0 0 0 0 0 0 0 0 0 4 0 0 0 0 0 0 0
0 0 0 0 0 0 0 0 0 0 0 0 0 0 0 0 0 0 0 0 0 0 0 0 0 0 0 0 0 0 0 0 0 0 0 0 0 0 0 0 0 0 0 0 0 0 0 0 0 0 0 0 0 0
0 0 0 0 0 0 0 0 0 0 0 0 0 0 0 0 0 0 0 0 0 0 0 0 0 0 0 0 0 0 4 0 0 0 0 0 0 0 0 0 0 0 0 0 0 0 0 0 0 0 0 0 0 0
0 0 0 0 0 0 0 0 0 0 0 0 0 0 0 0 0 0 0 0 0 0 0 0 0 0 0 0 0 0 0 0 0 8 19 9 7 1 0 0 0 0 0 0 0 0 0 0 0 0 0 0 0 0
CIN
0 0 0 0 0 0 0 -1 -2 0 0 0 0 0 0 0 -1 -4 -2 -4 -2 0 0 -4 -1 -22 -15 -18 -23 0 0 0 0 0 -3 -3 0 0 0 0 0 0 0 0 -4 -3 -4 0 0 0 0 0 0 0
0 0 0 0 0 0 0 -1 -3 0 0 0 0 0 0 0 0 -1 -4 -4 -6 0 0 0 0 -19 -1 -19 -23 0 0 0 0 -1 -1 0 -1 0 0 0 0 0 0 0 0 0 0 0 0 0 0 0 0 0
0 0 0 0 0 0 0 0 0 0 0 0 0 0 0 0 0 -1 -7 0 -2 0 0 0 0 0 0 0 0 -25 0 0 0 0 0 0 0 0 0 0 0 0 0 0 0 0 0 0 0 0 0 0 0 0
0 0 0 0 0 0 0 0 0 0 0 0 0 0 0 0 0 -1 -1 0 -3 0 0 0 0 0 0 0 0 0 0 0 0 0 0 0 0 0 0 0 0 0 0 0 0 0 0 0 0 0 0 0 0 0
0 0 0 0 0 0 0 0 0 0 0 0 0 0 0 0 0 -4 -2 -4 0 0 0 0 0 0 0 0 0 0 0 0 0 0 0 0 0 0 0 0 0 0 0 0 0 0 0 0 0 0 0 0 0 0
0 0 0 0 0 0 0 0 0 0 0 0 0 0 0 0 -1 -6 0 0 0 0 -4 0 0 0 0 0 0 0 0 0 0 0 0 0 0 0 0 0 0 0 0 0 0 0 0 0 0 0 0 0 0 0
0 0 0 0 0 0 0 0 0 0 0 0 0 0 0 0 -10 0 0 0 0 -4 -11 -1 0 0 0 0 0 0 0 0 0 0 0 0 0 0 0 0 0 0 0 0 0 0 0 0 0 0 0 0 0 0
0 0 0 0 -1 0 0 -1 -2 -1 -3 -2 0 0 0 0 -2 -5 -3 0 -1 0 0 -5 0 0 0 0 0 0 0 0 0 0 0 0 0 0 0 0 0 0 0 0 0 0 0 0 0 0 0 0 0 0
-1 -1 -2 0 0 0 0 0 0 0 -7 0 0 0 -12 -4 0 0 0 0 0 -15 -4 0 0 0 0 0 0 0 0 0 0 0 0 0 0 0 0 0 0 0 0 0 0 0 0 0 0 0 0 0 0 0
0 0 -1 0 0 0 0 0 -1 0 -1 0 -2 0 0 0 0 -1 0 0 0 0 0 0 0 0 0 0 0 0 0 0 0 0 0 0 0 0 0 0 0 0 0 0 0 0 0 0 0 0 0 0 0 0
-2 0 0 0 0 0 0 -1 -5 -12 0 0 0 0 0 0 0 0 0 0 0 0 0 0 0 0 0 0 0 0 0 0 0 0 0 0 0 0 0 0 0 0 0 0 0 0 0 0 0 0 0 0 0 0
0 0 0 -1 -4 0 0 0 0 0 0 0 0 0 0 0 0 0 0 0 0 0 0 0 0 0 0 0 0 0 0 0 0 0 0 0 0 0 0 0 0 0 0 0 0 0 0 0 0 0 0 0 0 0
0 0 0 0 0 0 0 0 0 0 0 0 0 0 0 0 0 0 0 0 0 0 0 0 0 0 0 0 0 0 0 0 0 0 0 0 0 0 0 0 0 0 0 0 0 0 0 0 0 0 0 0 0 0
0 0 0 0 0 0 0 0 0 0 0 0 0 0 0 0 0 0 0 0 0 0 0 0 0 0 0 0 0 0 0 0 0 0 0 0 0 0 0 0 0 0 0 0 0 0 0 0 0 0 0 0 0 0
0 0 0 0 0 0 0 0 0 0 0 0 0 0 0 0 0 0 0 0 0 0 0 0 0 0 0 0 0 0 0 0 0 0 0 0 0 0 0 0 0 0 0 0 0 0 0 0 0 0 0 0 0 0
0 0 0 0 0 0 0 0 0 0 0 0 0 0 0 0 0 0 0 0 0 0 0 0 0 0 0 0 0 0 0 0 0 0 0 0 0 0 0 0 0 0 0 0 0 0 0 0 0 0 0 0 0 0
0 0 0 0 0 0 0 0 0 0 0 0 0 0 0 0 0 0 0 0 0 0 0 0 0 0 0 0 0 0 0 0 0 0 0 0 0 0 0 0 0 0 0 0 0 0 0 0 0 0 0 0 0 0
0 0 0 0 0 0 0 0 0 0 0 0 0 0 0 0 0 0 0 0 0 0 0 0 0 0 0 0 0 0 0 0 0 0 0 0 0 0 0 0 0 0 0 0 0 0 0 0 0 0 0 0 0 0
0 0 0 0 0 0 0 0 0 0 0 0 0 0 0 0 0 0 0 0 0 0 0 0 0 0 0 0 0 0 0 0 0 0 0 0 0 0 0 0 0 0 0 0 0 0 0 0 0 0 0 0 0 0
0 0 0 0 0 0 0 0 0 0 0 0 0 0 0 0 0 0 0 0 0 0 0 0 0 0 0 0 0 0 0 0 0 0 0 0 0 0 0 0 0 0 0 0 0 0 0 0 0 0 0 0 0 0
0 0 0 0 0 0 0 0 0 0 0 0 0 0 0 0 0 0 0 0 0 0 0 0 0 0 0 0 0 0 0 0 0 0 0 0 0 0 0 0 0 0 0 0 0 0 0 0 0 0 0 0 0 0
0 0 0 0 0 0 0 0 0 0 0 0 0 0 0 0 0 0 0 0 0 0 0 0 0 0 0 0 0 0 0 0 0 0 0 0 0 0 0 0 0 0 0 0 0 0 0 0 0 0 0 0 0 0
0 0 0 0 0 0 0 0 0 0 0 0 0 0 0 0 0 0 0 0 0 0 0 0 0 0 0 0 0 0 0 0 0 0 0 0 0 0 0 0 0 0 0 0 0 0 0 0 0 0 0 0 0 0
0 0 0 0 0 0 0 0 0 0 0 0 0 0 0 0 0 0 0 0 0 0 0 0 0 0 0 0 0 0 0 0 0 0 0 0 0 0 0 0 0 0 0 0 0 0 0 0 0 0 0 0 0 0
0 0 0 0 0 0 0 0 0 0 0 0 0 0 0 0 0 0 0 0 0 0 0 0 0 0 0 0 0 0 0 0 0 0 0 0 0 0 0 0 0 0 0 0 0 0 0 0 0 0 0 0 0 0
0 0 0 0 0 0 0 0 0 0 0 0 0 0 0 0 0 0 0 0 0 0 0 0 0 0 0 0 0 0 0 0 0 0 0 0 0 0 0 0 0 0 0 0 0 0 0 0 0 0 0 0 0 0
0 0 0 0 0 0 0 0 0 0 0 0 0 0 0 0 0 0 0 0 0 0 0 0 0 0 0 0 0 0 0 0 0 0 0 0 0 0 0 0 0 0 0 0 0 0 0 0 0 0 0 0 0 0
0 0 0 0 0 0 0 0 0 0 0 0 0 0 0 0 0 0 0 0 0 0 0 0 0 0 0 0 0 0 0 0 0 0 0 0 0 0 0 0 0 0 0 0 0 0 0 0 0 0 0 0 0 0
0 0 0 0 0 0 0 0 0 0 0 0 0 0 0 0 0 0 0 0 0 0 0 0 0 0 0 0 0 0 0 0 0 0 0 0 0 0 0 0 0 0 0 0 0 0 0 0 0 0 0 0 0 0
0 0 0 0 0 0 0 0 0 0 0 0 0 0 0 0 0 0 0 0 0 0 0 0 0 0 0 0 0 0 0 0 0 0 0 0 0 0 0 0 0 0 0 0 0 0 0 0 0 0 0 0 0 0
0 0 0 0 0 0 0 0 0 0 0 0 0 0 0 0 0 0 0 0 0 0 0 0 0 0 0 0 0 0 0 0 0 0 0 0 0 0 0 0 0 0 0 0 0 0 0 0 0 0 0 0 0 0
0 0 0 0 0 0 0 0 0 0 0 0 0 0 0 0 0 0 0 0 0 0 0 0 0 0 0 0 0 0 0 0 0 0 0 0 0 0 0 0 0 0 0 0 0 0 0 0 0 0 0 0 0 0
0 0 0 0 0 0 0 0 0 0 0 0 0 0 0 0 0 0 0 0 0 0 0 0 0 0 0 0 0 0 0 0 0 0 0 0 0 0 0 0 0 0 0 0 0 0 0 0 0 0 0 0 0 0
Wind_Speed
19 19 20 20 20 19 20 19 16 15 15 14 15 15 16 16 16 10 5 5 6 5 4 5 11 5 2 7 6 5 3 2 3 6 4 4 5 7 5 6 8 9 8 5 5 7 12 5 5 7 4 3 5 5
19 19 19 20 20 20 19 17 17 15 15 16 15 16 15 15 16 13 4 2 2 7 2 3 12 17 17 8 7 7 2 6 5 5 4 2 4 3 4 6 1 6 8 6 9 8 1 7 3 3 5 5 6 5
19 20 20 20 20 20 20 19 20 18 16 17 17 17 17 15 16 13 4 4 2 1 3 2 7 4 4 5 3 5 3 5 3 2 3 2 3 3 4 5 2 4 4 4 2 4 6 7 4 4 6 4 5 2
20 20 20 20 20 21 21 21 21 20 19 19 18 17 18 16 16 15 3 4 3 2 2 3 3 3 6 5 3 3 3 3 4 2 3 3 2 5 4 2 6 5 7 6 6 4 4 5 7 6 6 5 6 6
20 20 20 20 21 21 21 22 22 21 20 20 19 18 18 17 16 10 4 5 4 4 2 2 1 3 3 6 4 3 6 6 2 4 3 5 2 4 1 1 5 7 9 6 7 7 5 6 5 7 9 8 7 8
22 21 21 21 21 22 22 22 22 22 22 21 20 19 18 17 14 1 3 3 9 5 2 3 4 1 2 3 4 1 2 1 3 3 2 3 2 4 5 5 7 6 5 4 4 2 4 1 3 3 7 7 7 8
20 21 20 21 22 23 24 24 24 24 24 22 21 20 19 17 5 4 3 3 9 4 3 3 3 2 0 1 1 1 2 0 0 1 3 2 2 4 2 6 4 7 6 5 3 6 1 2 2 4 5 6 8 8
17 18 19 21 18 16 18 21 23 24 25 20 21 21 19 17 9 5 4 3 6 1 2 4 1 1 3 2 2 0 1 1 0 0 1 2 2 1 6 4 4 2 5 4 5 1 2 6 6 6 6 6 8 7
9 7 3 5 12 18 23 28 31 33 30 28 24 21 3 2 3 2 6 8 3 2 2 2 5 4 4 2 1 1 1 1 1 2 2 4 3 7 5 6 6 6 6 7 5 6 7 7 7 6 6 6 8 6
13 5 3 11 17 19 25 32 40 39 37 33 13 4 3 3 8 8 3 3 3 2 2 3 4 2 3 2 1 3 2 2 2 1 1 3 5 3 2 3 2 3 6 9 7 4 5 4 6 5 5 4 5 4
8 9 12 13 16 14 23 7 23 30 24 5 3 4 3 7 3 2 3 3 0 1 2 2 3 4 1 4 3 3 2 2 2 2 2 3 4 4 4 5 4 4 4 4 3 4 5 7 7 6 4 4 3 2
13 14 15 18 23 30 24 25 22 9 3 9 11 7 4 3 2 3 1 1 2 4 2 4 3 2 2 1 2 2 3 2 4 2 3 4 5 4 3 4 5 4 7 7 4 8 7 7 5 5 3 2 2 3
15 15 15 16 20 26 26 27 29 20 6 4 7 5 1 4 4 4 5 4 1 2 2 2 3 2 2 1 2 2 3 2 2 2 4 5 3 4 2 2 4 5 6 6 5 5 5 4 4 4 3 4 4 4
12 15 18 15 10 7 8 7 5 7 6 5 4 4 0 2 1 2 2 2 1 1 3 3 3 2 1 2 1 3 2 2 2 1 6 3 3 5 3 1 3 2 3 3 3 3 3 3 4 3 5 4 5 7
9 15 17 15 15 7 10 11 10 5 5 5 3 2 1 1 2 2 1 0 3 1 2 3 3 2 2 3 2 3 2 2 5 6 3 2 4 3 1 2 2 1 1 3 2 3 4 4 5 7 6 6 7 7
5 5 11 17 13 11 4 7 6 4 5 5 6 3 2 1 2 3 3 2 3 2 1 3 3 3 2 2 3 4 5 5 3 2 2 2 3 5 4 4 4 3 4 5 5 5 7 6 6 8 5 6 7 8
11 4 17 14 5 11 15 5 5 8 6 6 3 2 2 2 2 1 1 2 1 2 2 3 5 3 1 4 2 3 5 3 2 2 2 2 3 5 4 5 6 5 6 5 4 5 6 5 3 2 9 9 8 10
4 5 17 13 3 5 5 7 6 6 6 2 4 3 2 1 1 2 3 4 3 3 3 3 5 5 3 3 3 3 2 2 3 3 4 6 4 5 6 8 8 6 7 7 6 7 4 5 7 9 10 10 8 9
5 7 15 13 7 6 5 6 5 6 0 2 2 2 2 2 2 2 3 4 2 1 5 4 7 2 1 2 2 3 3 3 4 6 5 6 7 8 8 7 7 8 9 9 8 7 7 8 9 8 8 7 8 8
2 15 13 16 8 5 7 4 3 6 2 1 3 3 1 2 3 2 3 4 3 3 7 5 2 0 1 3 2 5 5 4 2 7 8 5 4 4 7 8 7 9 8 8 7 14 8 8 7 7 8 8 7 9
7 8 12 7 6 8 6 2 5 2 1 3 2 2 2 3 4 5 4 4 5 3 2 1 2 4 4 4 4 5 6 3 5 5 7 9 8 5 7 7 8 7 7 7 8 9 12 9 8 6 7 8 8 9
2 9 4 6 7 5 6 4 3 1 4 1 3 2 4 3 4 3 4 5 2 1 1 2 3 3 5 6 6 5 6 5 6 6 13 12 8 7 7 6 5 7 7 8 8 9 9 8 8 8 8 9 11 8
6 6 6 6 8 8 3 3 5 6 4 3 3 5 4 3 3 3 4 2 2 2 2 2 5 4 6 9 5 7 6 6 6 6 7 7 8 8 8 8 7 8 8 9 8 8 9 13 11 10 7 9 7 7
9 8 7 5 4 0 3 6 3 4 4 5 4 3 4 3 5 5 2 2 2 2 2 4 2 6 5 4 4 6 6 4 7 8 7 8 8 8 7 8 8 8 8 9 8 8 8 8 13 8 8 8 8 8
9 9 6 7 3 6 7 6 6 5 3 2 3 4 4 3 4 4 0 3 3 3 3 4 5 4 6 7 7 8 8 6 7 10 9 7 8 8 8 7 7 8 7 7 8 8 8 7 7 8 8 7 7 7
8 5 5 1 4 4 1 3 3 1 1 3 1 3 2 2 4 1 2 3 3 4 7 7 8 8 8 6 9 9 10 8 8 8 10 7 7 7 8 8 7 8 4 6 7 8 8 7 4 5 4 5 7 4
6 4 3 3 1 1 3 3 2 4 4 2 3 4 3 4 2 2 2 1 5 6 7 6 6 7 8 10 9 9 9 9 8 9 10 8 6 5 5 6 8 7 7 8 5 5 5 3 1 2 2 3 2 1
3 3 3 4 3 2 4 3 3 2 2 2 1 4 2 1 0 2 2 5 7 7 7 6 6 6 8 9 9 9 9 8 9 9 6 4 4 4 5 5 5 13 6 6 1 2 2 3 3 3 4 5 5 5
3 4 1 5 3 4 3 2 1 1 2 1 1 1 1 1 0 1 3 7 7 6 6 7 8 7 7 7 6 6 7 7 8 11 10 7 7 4 6 6 6 5 4 5 3 5 5 5 5 5 6 6 6 7
4 3 2 2 3 2 2 0 2 2 1 1 2 3 2 1 1 1 4 7 7 7 7 7 7 6 7 8 10 13 9 7 4 6 6 6 6 7 6 6 6 5 5 5 6 8 14 9 9 7 8 7 7 8
2 2 3 2 2 2 2 2 2 2 2 2 2 1 2 3 2 1 3 6 6 6 7 8 8 7 7 9 9 10 11 7 11 11 6 3 5 5 6 6 6 5 6 6 7 6 6 7 7 8 9 10 12 11
3 2 2 2 2 3 3 2 1 1 3 2 2 2 3 2 2 2 3 7 8 8 12 10 8 10 10 8 8 7 14 9 11 4 4 3 4 5 6 5 6 6 8 9 8 9 11 11 10 11 12 14 13 14
2 2 2 2 4 4 3 3 4 3 3 3 2 1 1 1 1 2 2 3 6 7 8 9 9 9 10 11 9 9 13 9 17 22 14 13 12 10 6 5 6 7 9 9 9 10 13 15 13 14 14 14 14 15
Wind_Direction
245 245 242 242 240 237 242 241 239 242 245 247 253 259 264 260 247 207 229 237 234 258 236 225 244 188 184 190 191 150 113 184 170 215 219 213 199 200 195 200 180 177 180 206 228 254 266 128 75 178 195 164 163 160
244 243 246 243 241 242 241 245 247 243 243 249 249 259 263 268 263 223 225 190 245 233 289 315 255 236 225 214 211 183 229 173 182 196 184 186 223 155 181 239 85 215 194 185 194 213 347 201 199 195 172 160 192 172
241 244 244 244 244 242 242 242 245 244 246 250 253 255 261 265 263 224 207 171 198 321 251 193 211 281 269 200 210 206 187 190 192 189 156 170 193 153 189 242 228 257 162 221 123 214 215 215 225 191 184 188 170 193
238 241 245 245 246 246 243 243 245 246 247 247 251 255 261 260 262 239 207 165 130 136 258 257 9 275 311 298 197 236 155 112 129 126 185 155 186 176 217 270 212 190 138 194 258 277 303 260 232 198 186 167 158 145
247 248 251 250 247 249 248 247 248 250 250 252 252 252 259 268 266 268 194 184 189 178 279 298 51 221 281 297 246 189 179 150 157 151 199 202 163 140 169 126 242 185 191 178 222 203 187 226 229 174 177 185 167 146
246 250 254 256 252 251 251 251 252 253 252 252 252 250 252 259 262 193 215 232 196 140 178 267 1 276 359 348 281 229 151 125 164 187 165 216 101 161 190 216 248 199 203 187 226 177 185 118 354 182 181 175 161 156
245 249 252 256 259 259 258 257 255 252 248 246 243 242 244 246 223 204 238 198 177 127 175 229 225 324 295 20 8 45 10 343 183 150 203 198 190 193 209 228 204 205 205 206 184 124 137 175 188 102 118 126 131 102
248 255 260 267 273 271 263 260 257 254 239 238 249 235 235 234 227 218 202 136 117 66 220 208 220 84 194 169 180 291 148 128 238 70 82 170 150 233 248 232 229 134 128 133 150 107 155 117 93 86 92 107 104 104
285 311 55 327 296 278 275 271 263 255 246 223 237 223 216 107 184 240 145 110 71 178 275 90 165 209 153 120 92 75 92 167 104 208 196 160 166 225 239 216 202 188 166 166 114 103 100 104 112 99 97 103 117 121
96 92 297 293 304 293 275 264 260 243 236 205 170 131 144 204 161 116 54 182 187 158 162 169 148 178 121 136 132 111 213 206 208 206 121 224 253 285 320 322 320 196 155 135 107 115 120 125 136 129 116 105 110 121
77 30 8 53 347 339 5 163 122 117 100 80 109 85 75 30 65 64 210 149 27 328 180 101 130 141 241 128 167 203 171 151 190 220 205 247 266 253 302 311 320 283 151 114 133 111 109 129 143 136 135 136 139 156
60 50 61 47 53 43 52 65 77 60 74 108 105 88 68 42 57 111 25 65 162 215 160 145 181 140 140 166 126 158 155 140 221 100 80 265 256 291 343 349 8 49 114 100 84 108 107 116 131 134 156 188 226 265
61 56 59 70 70 76 62 65 83 104 84 57 53 65 78 289 83 165 197 278 263 180 176 152 111 113 110 66 89 130 157 152 92 81 233 234 290 329 316 7 48 47 78 97 90 92 111 123 143 160 209 225 239 248
75 64 55 47 39 43 26 34 48 30 63 65 75 64 63 76 306 172 168 165 125 183 137 101 83 91 112 81 31 115 56 95 70 2 241 258 281 298 288 29 71 76 85 117 142 155 174 196 239 244 233 218 235 252
52 51 41 41 27 45 69 73 59 45 65 75 42 86 46 236 228 237 204 252 14 10 106 110 80 77 54 105 37 109 70 255 201 227 236 296 334 344 29 26 27 336 270 267 242 224 239 247 246 267 245 236 229 244
16 58 13 4 41 33 83 39 37 67 53 77 50 68 281 61 35 31 30 54 20 18 67 39 109 90 71 99 117 202 143 221 253 236 282 332 9 11 5 341 314 257 245 248 244 248 263 251 242 253 262 237 233 234
57 31 337 350 34 57 41 68 53 46 94 51 11 24 104 90 166 304 36 0 23 96 137 106 68 200 90 51 349 204 190 237 266 303 302 274 272 286 285 293 286 275 271 257 246 241 246 240 238 254 266 266 240 247
41 305 355 2 75 62 40 33 75 67 59 351 70 332 55 41 31 1 10 1 26 95 83 165 120 68 129 136 293 260 272 264 249 262 274 287 277 273 273 278 282 270 268 267 247 258 245 254 257 261 258 260 258 255
40 15 17 18 55 85 67 19 53 93 169 346 13 3 36 63 72 7 8 355 38 95 100 43 63 83 333 221 239 271 267 235 271 293 281 273 264 270 276 274 274 272 267 265 261 261 258 242 246 258 257 253 252 256
47 29 19 33 43 74 57 5 30 83 92 270 31 15 24 39 330 7 339 7 30 58 38 47 82 93 219 252 242 278 279 269 267 291 285 271 251 256 260 262 268 269 268 268 257 267 264 262 246 241 242 241 247 251
30 348 16 48 44 61 86 11 41 103 157 82 299 24 314 7 25 10 346 334 55 60 56 9 258 256 268 255 251 262 269 218 240 224 277 291 292 257 270 263 254 254 258 266 266 268 276 265 268 256 246 254 251 254
310 9 55 21 71 37 76 354 115 351 67 173 40 24 31 24 344 332 301 45 68 243 204 249 267 282 304 288 284 228 254 260 258 258 281 284 285 285 278 266 265 269 263 259 257 259 261 258 258 254 249 250 255 250
24 35 41 26 67 44 287 10 65 360 75 320 20 41 6 350 253 322 60 216 250 246 231 245 275 257 259 283 285 279 250 254 271 268 272 271 267 267 269 269 259 262 267 265 255 256 259 265 271 274 263 261 256 248
33 50 47 47 45 145 359 19 29 45 40 29 42 17 343 293 324 48 67 292 268 315 325 287 289 310 301 268 282 289 291 256 275 275 268 270 274 276 267 267 266 262 259 268 269 266 263 261 266 267 262 256 249 244
64 346 52 356 337 46 32 13 355 43 49 336 57 354 323 355 59 46 315 287 309 289 294 306 313 306 298 294 295 299 303 292 291 296 293 279 276 279 277 269 264 260 265 268 268 266 265 262 260 259 256 249 247 244
67 308 72 300 327 71 325 52 30 357 78 34 333 269 8 69 57 7 324 303 302 310 325 321 315 310 301 291 299 306 306 305 293 285 287 285 277 278 285 289 292 292 258 255 274 280 281 279 272 285 286 282 261 184
57 328 324 15 299 91 57 35 42 83 57 30 304 350 37 61 12 309 322 323 313 315 307 300 293 289 288 297 298 297 298 297 286 282 291 291 286 279 278 287 291 283 289 282 278 285 291 302 347 14 5 16 34 189
153 17 66 315 43 13 120 60 58 68 274 292 313 24 88 101 318 325 298 317 316 310 305 299 291 285 293 295 295 297 300 304 301 297 291 275 271 286 295 300 299 322 333 321 350 342 34 67 69 59 54 55 46 48
41 340 37 16 18 42 59 109 170 14 2 49 106 33 26 19 344 342 317 322 319 315 323 326 325 321 310 309 304 309 313 314 325 334 336 332 332 327 334 327 328 332 345 354 39 108 107 100 86 76 72 68 64 67
326 347 69 43 78 25 258 147 239 269 270 307 292 293 257 301 333 302 334 339 340 333 319 307 306 320 321 330 329 329 331 321 319 330 316 326 328 321 330 337 344 352 2 28 41 48 65 57 70 65 68 68 72 75
336 19 63 49 126 246 240 294 300 260 31 351 329 184 279 315 308 303 341 336 326 317 326 339 334 331 330 333 332 327 326 326 335 331 352 337 333 342 349 357 5 15 31 45 52 59 73 77 77 81 82 86 92 89
3 63 109 65 295 296 15 49 6 40 334 28 328 339 321 315 334 327 345 350 347 348 342 342 333 323 319 313 307 309 321 315 324 344 1 350 360 5 8 15 29 40 49 51 53 59 64 70 76 79 82 84 86 88
32 34 27 53 14 8 334 41 18 353 22 21 331 316 255 317 279 310 326 17 341 319 322 320 313 308 304 308 322 332 341 335 348 7 55 56 60 61 42 31 40 49 55 58 61 67 70 74 73 74 74 75 76 76